GFSNW_prec_pwat_183.txt.gz
Precipitable_Water
0.82 0.83 0.84 0.85 0.84 0.82 0.78 0.62 0.41 0.70 0.67 0.38 0.40 0.35 0.35 0.40 0.38 0.43 0.36 0.32 0.28 0.26 0.26 0.25 0.24 0.23 0.25 0.29 0.32 0.26 0.26 0.24 0.21 0.24 0.27 0.28 0.27 0.23 0.22 0.19 0.18 0.22 0.26 0.25
0.77 0.77 0.80 0.83 0.84 0.84 0.70 0.55 0.54 0.73 0.67 0.35 0.36 0.40 0.37 0.38 0.39 0.38 0.36 0.34 0.33 0.32 0.28 0.23 0.24 0.25 0.29 0.31 0.29 0.26 0.30 0.25 0.21 0.22 0.25 0.27 0.28 0.27 0.28 0.26 0.24 0.19 0.18 0.19
0.74 0.75 0.77 0.81 0.84 0.85 0.78 0.60 0.45 0.56 0.60 0.53 0.44 0.40 0.38 0.37 0.44 0.39 0.39 0.37 0.35 0.31 0.28 0.29 0.27 0.26 0.30 0.32 0.30 0.31 0.29 0.22 0.20 0.17 0.20 0.23 0.28 0.29 0.29 0.27 0.23 0.23 0.23 0.25
0.66 0.67 0.68 0.76 0.83 0.84 0.77 0.60 0.48 0.53 0.41 0.45 0.46 0.43 0.41 0.37 0.37 0.43 0.40 0.36 0.34 0.33 0.29 0.29 0.28 0.30 0.31 0.32 0.33 0.34 0.28 0.21 0.25 0.24 0.23 0.24 0.25 0.26 0.22 0.20 0.22 0.20 0.23 0.24
0.60 0.59 0.60 0.64 0.75 0.82 0.67 0.51 0.48 0.53 0.45 0.46 0.43 0.43 0.38 0.36 0.37 0.40 0.35 0.34 0.37 0.36 0.31 0.31 0.29 0.35 0.36 0.33 0.37 0.35 0.32 0.24 0.26 0.23 0.22 0.21 0.19 0.19 0.19 0.20 0.20 0.19 0.19 0.20
0.56 0.55 0.54 0.56 0.67 0.73 0.60 0.62 0.65 0.54 0.46 0.44 0.40 0.39 0.38 0.38 0.42 0.45 0.41 0.40 0.37 0.35 0.37 0.43 0.43 0.43 0.41 0.38 0.34 0.33 0.32 0.28 0.25 0.19 0.21 0.22 0.19 0.19 0.21 0.21 0.21 0.23 0.22 0.23
0.53 0.51 0.52 0.51 0.58 0.69 0.63 0.62 0.60 0.46 0.36 0.41 0.40 0.42 0.42 0.41 0.39 0.36 0.41 0.42 0.38 0.42 0.48 0.45 0.42 0.39 0.37 0.36 0.35 0.37 0.30 0.29 0.28 0.22 0.23 0.16 0.20 0.29 0.28 0.25 0.23 0.25 0.25 0.28
0.45 0.45 0.48 0.50 0.52 0.59 0.62 0.65 0.56 0.47 0.36 0.40 0.40 0.41 0.38 0.40 0.43 0.40 0.37 0.37 0.40 0.43 0.38 0.32 0.27 0.25 0.27 0.28 0.30 0.31 0.32 0.27 0.24 0.22 0.21 0.22 0.21 0.24 0.26 0.27 0.21 0.24 0.25 0.29
0.41 0.39 0.42 0.46 0.50 0.47 0.51 0.61 0.65 0.52 0.38 0.34 0.38 0.36 0.33 0.29 0.29 0.29 0.30 0.33 0.33 0.33 0.30 0.28 0.20 0.17 0.19 0.19 0.23 0.31 0.31 0.29 0.26 0.25 0.20 0.16 0.22 0.34 0.35 0.30 0.16 0.32 0.38 0.39
0.39 0.40 0.38 0.38 0.40 0.42 0.45 0.45 0.57 0.47 0.35 0.35 0.35 0.28 0.28 0.32 0.29 0.26 0.28 0.33 0.34 0.39 0.29 0.24 0.22 0.20 0.24 0.18 0.18 0.20 0.26 0.27 0.23 0.23 0.22 0.22 0.27 0.35 0.34 0.18 0.20 0.35 0.39 0.40
0.46 0.43 0.39 0.36 0.36 0.37 0.37 0.39 0.40 0.32 0.29 0.31 0.36 0.36 0.32 0.31 0.30 0.26 0.34 0.33 0.32 0.29 0.26 0.25 0.24 0.23 0.24 0.22 0.24 0.24 0.25 0.27 0.22 0.25 0.22 0.18 0.37 0.34 0.25 0.28 0.33 0.35 0.36 0.37
0.39 0.39 0.36 0.33 0.33 0.36 0.39 0.34 0.44 0.42 0.31 0.30 0.39 0.35 0.35 0.32 0.31 0.29 0.31 0.29 0.35 0.39 0.33 0.30 0.33 0.29 0.30 0.24 0.20 0.30 0.24 0.27 0.22 0.26 0.26 0.34 0.36 0.36 0.37 0.37 0.34 0.38 0.40 0.42
0.37 0.37 0.37 0.37 0.37 0.39 0.38 0.37 0.42 0.40 0.33 0.29 0.28 0.28 0.34 0.37 0.32 0.32 0.22 0.23 0.30 0.32 0.44 0.37 0.33 0.27 0.32 0.24 0.27 0.29 0.32 0.36 0.27 0.28 0.26 0.27 0.29 0.32 0.35 0.37 0.36 0.41 0.38 0.40
0.39 0.39 0.40 0.38 0.39 0.44 0.45 0.42 0.47 0.41 0.34 0.26 0.26 0.37 0.32 0.36 0.36 0.34 0.33 0.27 0.32 0.32 0.39 0.34 0.31 0.28 0.33 0.28 0.29 0.31 0.34 0.38 0.32 0.31 0.32 0.31 0.32 0.32 0.27 0.32 0.37 0.36 0.34 0.37
0.41 0.40 0.38 0.36 0.35 0.37 0.41 0.43 0.46 0.47 0.32 0.25 0.27 0.32 0.31 0.33 0.32 0.33 0.36 0.31 0.28 0.26 0.23 0.25 0.25 0.29 0.30 0.30 0.32 0.28 0.34 0.33 0.29 0.26 0.34 0.34 0.32 0.32 0.31 0.28 0.30 0.31 0.33 0.34
0.45 0.40 0.36 0.35 0.35 0.35 0.36 0.30 0.38 0.40 0.41 0.30 0.22 0.26 0.25 0.27 0.27 0.28 0.30 0.34 0.32 0.31 0.27 0.25 0.26 0.31 0.33 0.26 0.20 0.30 0.38 0.40 0.36 0.32 0.37 0.39 0.42 0.34 0.31 0.30 0.30 0.32 0.31 0.33
0.49 0.43 0.39 0.38 0.38 0.38 0.32 0.30 0.42 0.44 0.45 0.30 0.22 0.21 0.25 0.31 0.33 0.30 0.27 0.25 0.28 0.31 0.30 0.27 0.25 0.27 0.35 0.26 0.21 0.30 0.33 0.34 0.35 0.37 0.35 0.31 0.34 0.29 0.30 0.31 0.33 0.34 0.33 0.34
0.50 0.44 0.40 0.40 0.41 0.40 0.34 0.39 0.41 0.43 0.35 0.32 0.21 0.20 0.19 0.26 0.22 0.27 0.38 0.28 0.28 0.34 0.33 0.35 0.29 0.31 0.31 0.24 0.28 0.30 0.30 0.30 0.28 0.28 0.30 0.27 0.27 0.28 0.30 0.35 0.37 0.33 0.36 0.44
0.46 0.42 0.41 0.39 0.36 0.31 0.33 0.45 0.45 0.43 0.36 0.25 0.24 0.18 0.16 0.32 0.30 0.33 0.35 0.38 0.27 0.35 0.25 0.27 0.35 0.31 0.26 0.26 0.29 0.27 0.28 0.28 0.28 0.29 0.29 0.27 0.26 0.30 0.32 0.38 0.39 0.37 0.40 0.45
0.43 0.42 0.33 0.27 0.33 0.40 0.38 0.33 0.28 0.31 0.31 0.30 0.21 0.23 0.21 0.30 0.31 0.31 0.34 0.36 0.29 0.25 0.31 0.38 0.32 0.26 0.30 0.31 0.30 0.31 0.31 0.34 0.36 0.31 0.27 0.29 0.31 0.31 0.34 0.41 0.39 0.39 0.41 0.44
0.41 0.33 0.29 0.39 0.43 0.35 0.29 0.24 0.22 0.23 0.19 0.22 0.20 0.18 0.15 0.22 0.20 0.24 0.29 0.29 0.32 0.24 0.27 0.27 0.24 0.21 0.26 0.31 0.32 0.35 0.36 0.36 0.38 0.39 0.40 0.39 0.39 0.40 0.42 0.42 0.42 0.43 0.43 0.43
0.37 0.36 0.39 0.40 0.32 0.28 0.22 0.19 0.21 0.21 0.17 0.18 0.20 0.20 0.21 0.22 0.26 0.24 0.26 0.28 0.29 0.19 0.32 0.26 0.19 0.23 0.31 0.30 0.34 0.34 0.35 0.38 0.40 0.43 0.43 0.43 0.43 0.45 0.45 0.46 0.46 0.46 0.48 0.48
0.38 0.32 0.28 0.26 0.24 0.17 0.19 0.15 0.16 0.16 0.22 0.26 0.28 0.26 0.26 0.28 0.32 0.29 0.30 0.24 0.21 0.29 0.23 0.19 0.20 0.27 0.34 0.34 0.36 0.36 0.42 0.44 0.44 0.46 0.48 0.49 0.48 0.49 0.48 0.46 0.47 0.46 0.46 0.48
0.29 0.23 0.18 0.20 0.19 0.20 0.20 0.20 0.20 0.24 0.30 0.31 0.30 0.30 0.26 0.29 0.29 0.29 0.24 0.27 0.27 0.20 0.17 0.17 0.25 0.33 0.33 0.37 0.42 0.42 0.41 0.44 0.45 0.45 0.45 0.44 0.43 0.43 0.44 0.44 0.47 0.47 0.45 0.46
0.26 0.26 0.17 0.19 0.22 0.28 0.32 0.33 0.33 0.35 0.38 0.35 0.32 0.33 0.33 0.30 0.28 0.29 0.27 0.23 0.19 0.18 0.16 0.24 0.34 0.34 0.37 0.39 0.41 0.42 0.41 0.43 0.43 0.43 0.41 0.40 0.41 0.41 0.41 0.42 0.43 0.42 0.41 0.39
0.28 0.26 0.23 0.29 0.28 0.30 0.33 0.33 0.32 0.39 0.37 0.38 0.36 0.30 0.27 0.25 0.26 0.24 0.21 0.19 0.15 0.18 0.27 0.38 0.35 0.35 0.37 0.38 0.41 0.42 0.44 0.44 0.42 0.41 0.41 0.40 0.40 0.40 0.40 0.41 0.40 0.40 0.40 0.39
0.26 0.24 0.29 0.28 0.29 0.30 0.34 0.36 0.35 0.43 0.35 0.28 0.29 0.24 0.21 0.27 0.23 0.22 0.24 0.21 0.25 0.32 0.37 0.37 0.36 0.36 0.36 0.38 0.41 0.42 0.43 0.43 0.42 0.41 0.41 0.41 0.41 0.41 0.39 0.37 0.39 0.40 0.39 0.39

GFSNW_prec_pwat_186.txt.gz
Precipitable_Water
1.03 1.03 1.00 0.96 0.94 0.92 0.83 0.69 0.52 0.85 0.80 0.43 0.42 0.36 0.36 0.39 0.38 0.40 0.40 0.39 0.35 0.32 0.30 0.28 0.27 0.25 0.27 0.32 0.30 0.26 0.30 0.28 0.22 0.23 0.27 0.30 0.29 0.26 0.26 0.22 0.19 0.21 0.22 0.23
0.96 0.97 0.97 0.95 0.91 0.86 0.73 0.56 0.56 0.78 0.70 0.36 0.35 0.38 0.38 0.40 0.38 0.37 0.40 0.40 0.38 0.38 0.32 0.27 0.29 0.30 0.33 0.32 0.31 0.29 0.32 0.27 0.22 0.22 0.26 0.29 0.28 0.30 0.31 0.32 0.28 0.23 0.22 0.21
0.90 0.89 0.90 0.91 0.90 0.86 0.78 0.59 0.44 0.59 0.62 0.53 0.44 0.40 0.39 0.37 0.43 0.40 0.43 0.42 0.41 0.38 0.35 0.35 0.31 0.30 0.32 0.35 0.34 0.36 0.33 0.26 0.22 0.17 0.19 0.22 0.22 0.25 0.29 0.30 0.25 0.25 0.24 0.25
0.84 0.85 0.89 0.91 0.90 0.90 0.78 0.61 0.50 0.53 0.43 0.48 0.46 0.44 0.42 0.39 0.38 0.45 0.43 0.37 0.37 0.35 0.31 0.32 0.30 0.32 0.32 0.34 0.34 0.33 0.31 0.23 0.25 0.24 0.22 0.23 0.24 0.24 0.23 0.25 0.28 0.24 0.22 0.20
0.77 0.75 0.76 0.82 0.89 0.90 0.72 0.53 0.51 0.58 0.52 0.53 0.47 0.44 0.41 0.39 0.39 0.40 0.39 0.36 0.36 0.36 0.32 0.33 0.30 0.34 0.37 0.37 0.39 0.37 0.41 0.34 0.34 0.23 0.26 0.26 0.23 0.22 0.22 0.21 0.21 0.20 0.20 0.20
0.65 0.64 0.61 0.64 0.75 0.79 0.64 0.65 0.65 0.55 0.48 0.45 0.44 0.41 0.40 0.40 0.42 0.42 0.44 0.42 0.38 0.36 0.41 0.48 0.45 0.46 0.46 0.45 0.39 0.36 0.34 0.33 0.32 0.24 0.28 0.26 0.21 0.20 0.21 0.21 0.21 0.20 0.19 0.24
0.62 0.60 0.57 0.57 0.64 0.69 0.64 0.63 0.60 0.46 0.38 0.42 0.41 0.42 0.44 0.43 0.41 0.40 0.46 0.47 0.42 0.46 0.53 0.49 0.45 0.40 0.39 0.37 0.34 0.35 0.30 0.29 0.28 0.23 0.25 0.18 0.21 0.28 0.28 0.26 0.23 0.28 0.27 0.25
0.58 0.55 0.54 0.51 0.54 0.63 0.63 0.63 0.54 0.46 0.35 0.40 0.40 0.42 0.43 0.45 0.49 0.45 0.45 0.48 0.51 0.52 0.46 0.32 0.27 0.26 0.27 0.27 0.28 0.29 0.32 0.28 0.24 0.21 0.19 0.22 0.19 0.26 0.26 0.27 0.26 0.38 0.30 0.30
0.51 0.48 0.47 0.47 0.49 0.52 0.57 0.62 0.65 0.51 0.37 0.36 0.43 0.40 0.41 0.37 0.37 0.37 0.40 0.43 0.46 0.39 0.30 0.26 0.20 0.17 0.20 0.19 0.22 0.29 0.34 0.34 0.30 0.27 0.20 0.15 0.21 0.31 0.37 0.37 0.25 0.36 0.33 0.31
0.44 0.43 0.44 0.47 0.50 0.48 0.49 0.51 0.63 0.53 0.38 0.41 0.39 0.33 0.32 0.37 0.33 0.28 0.31 0.35 0.35 0.37 0.27 0.22 0.21 0.20 0.25 0.20 0.20 0.19 0.24 0.24 0.24 0.22 0.22 0.25 0.34 0.35 0.42 0.23 0.23 0.36 0.34 0.30
0.41 0.40 0.38 0.37 0.37 0.40 0.47 0.47 0.53 0.45 0.38 0.35 0.39 0.38 0.34 0.33 0.34 0.30 0.34 0.33 0.32 0.32 0.29 0.27 0.26 0.24 0.24 0.23 0.25 0.24 0.23 0.23 0.22 0.24 0.24 0.19 0.40 0.37 0.31 0.34 0.34 0.32 0.32 0.34
0.44 0.41 0.36 0.32 0.30 0.31 0.38 0.36 0.43 0.38 0.30 0.30 0.39 0.38 0.37 0.35 0.36 0.34 0.34 0.34 0.34 0.38 0.32 0.33 0.32 0.28 0.30 0.30 0.23 0.30 0.23 0.29 0.27 0.31 0.27 0.39 0.37 0.40 0.44 0.37 0.34 0.35 0.36 0.39
0.38 0.37 0.32 0.30 0.31 0.29 0.34 0.40 0.44 0.34 0.30 0.29 0.28 0.27 0.31 0.34 0.32 0.33 0.22 0.22 0.26 0.27 0.37 0.33 0.32 0.26 0.29 0.23 0.26 0.30 0.33 0.36 0.31 0.34 0.33 0.32 0.33 0.33 0.32 0.34 0.30 0.29 0.34 0.37
0.35 0.34 0.33 0.33 0.35 0.37 0.39 0.38 0.44 0.38 0.34 0.26 0.27 0.37 0.35 0.42 0.40 0.38 0.37 0.30 0.31 0.31 0.34 0.31 0.26 0.22 0.29 0.26 0.28 0.27 0.30 0.32 0.30 0.31 0.38 0.35 0.35 0.37 0.40 0.37 0.31 0.30 0.31 0.31
0.36 0.36 0.36 0.36 0.37 0.38 0.39 0.43 0.45 0.46 0.35 0.26 0.27 0.32 0.33 0.35 0.35 0.35 0.37 0.34 0.29 0.27 0.24 0.23 0.21 0.25 0.25 0.26 0.26 0.21 0.27 0.25 0.26 0.24 0.34 0.36 0.34 0.42 0.46 0.41 0.39 0.33 0.31 0.32
0.38 0.35 0.35 0.34 0.33 0.30 0.35 0.31 0.40 0.43 0.42 0.30 0.21 0.26 0.24 0.28 0.31 0.31 0.31 0.30 0.32 0.31 0.28 0.26 0.28 0.31 0.27 0.21 0.17 0.19 0.26 0.30 0.38 0.35 0.41 0.39 0.38 0.39 0.45 0.42 0.36 0.32 0.32 0.33
0.44 0.40 0.38 0.35 0.32 0.33 0.34 0.31 0.41 0.46 0.46 0.31 0.23 0.21 0.26 0.29 0.31 0.31 0.27 0.29 0.31 0.30 0.31 0.29 0.28 0.28 0.31 0.23 0.15 0.20 0.24 0.24 0.26 0.34 0.36 0.31 0.34 0.34 0.37 0.34 0.32 0.34 0.35 0.36
0.49 0.46 0.41 0.38 0.36 0.37 0.34 0.38 0.38 0.41 0.34 0.32 0.22 0.19 0.21 0.25 0.25 0.23 0.31 0.32 0.34 0.31 0.25 0.27 0.26 0.30 0.30 0.21 0.20 0.23 0.22 0.30 0.32 0.30 0.31 0.30 0.31 0.31 0.28 0.28 0.29 0.32 0.39 0.39
0.51 0.47 0.42 0.40 0.36 0.31 0.33 0.45 0.43 0.43 0.34 0.23 0.22 0.18 0.17 0.33 0.30 0.32 0.34 0.38 0.29 0.36 0.27 0.25 0.25 0.22 0.20 0.22 0.26 0.29 0.33 0.32 0.30 0.30 0.33 0.34 0.31 0.30 0.30 0.29 0.33 0.38 0.39 0.41
0.48 0.43 0.34 0.30 0.34 0.45 0.43 0.36 0.28 0.28 0.29 0.28 0.19 0.23 0.17 0.24 0.27 0.28 0.29 0.35 0.26 0.22 0.26 0.32 0.24 0.21 0.28 0.30 0.33 0.35 0.34 0.36 0.37 0.35 0.33 0.32 0.33 0.35 0.33 0.33 0.36 0.40 0.46 0.43
0.39 0.33 0.31 0.42 0.47 0.37 0.32 0.24 0.22 0.23 0.20 0.23 0.19 0.18 0.15 0.20 0.18 0.20 0.26 0.25 0.24 0.22 0.26 0.30 0.25 0.23 0.29 0.35 0.34 0.41 0.46 0.45 0.39 0.38 0.36 0.37 0.38 0.39 0.42 0.42 0.45 0.47 0.45 0.43
0.39 0.40 0.45 0.44 0.34 0.27 0.22 0.19 0.20 0.20 0.17 0.20 0.21 0.22 0.22 0.22 0.23 0.20 0.26 0.20 0.22 0.18 0.35 0.27 0.21 0.23 0.35 0.40 0.39 0.36 0.37 0.35 0.34 0.36 0.37 0.41 0.42 0.45 0.45 0.44 0.44 0.46 0.48 0.48
0.42 0.33 0.28 0.27 0.25 0.18 0.16 0.15 0.16 0.17 0.22 0.25 0.24 0.24 0.31 0.30 0.28 0.26 0.22 0.19 0.24 0.31 0.24 0.20 0.19 0.29 0.36 0.36 0.34 0.37 0.41 0.41 0.41 0.42 0.44 0.45 0.46 0.48 0.47 0.47 0.49 0.50 0.49 0.50
0.30 0.23 0.17 0.18 0.18 0.19 0.17 0.18 0.21 0.27 0.30 0.31 0.31 0.32 0.28 0.31 0.27 0.26 0.22 0.25 0.27 0.20 0.17 0.17 0.25 0.33 0.34 0.37 0.40 0.40 0.40 0.42 0.42 0.43 0.45 0.44 0.45 0.45 0.46 0.47 0.48 0.48 0.47 0.48
0.26 0.25 0.17 0.18 0.21 0.25 0.28 0.31 0.33 0.33 0.36 0.35 0.32 0.30 0.28 0.28 0.25 0.27 0.25 0.22 0.19 0.19 0.17 0.24 0.36 0.40 0.37 0.37 0.37 0.37 0.40 0.41 0.42 0.44 0.43 0.42 0.41 0.42 0.42 0.44 0.45 0.45 0.44 0.42
0.29 0.26 0.21 0.24 0.24 0.25 0.30 0.32 0.33 0.40 0.40 0.40 0.37 0.31 0.27 0.25 0.26 0.24 0.21 0.19 0.16 0.20 0.31 0.40 0.42 0.40 0.38 0.38 0.37 0.38 0.38 0.41 0.43 0.43 0.42 0.41 0.41 0.41 0.41 0.42 0.42 0.42 0.41 0.40
0.24 0.22 0.26 0.24 0.25 0.26 0.29 0.36 0.37 0.43 0.37 0.28 0.30 0.25 0.23 0.28 0.24 0.22 0.25 0.23 0.29 0.35 0.38 0.40 0.39 0.37 0.36 0.37 0.36 0.37 0.37 0.39 0.41 0.42 0.42 0.42 0.43 0.43 0.42 0.39 0.40 0.41 0.41 0.40

GFSNW_prec_pwat_189.txt.gz
Precipitable_Water
1.16 1.15 1.14 1.12 1.11 1.09 0.98 0.83 0.60 0.94 0.91 0.54 0.50 0.41 0.42 0.43 0.43 0.44 0.43 0.42 0.39 0.33 0.32 0.29 0.27 0.26 0.31 0.36 0.35 0.28 0.31 0.27 0.22 0.24 0.30 0.30 0.29 0.25 0.25 0.22 0.22 0.25 0.25 0.25
1.12 1.10 1.09 1.08 1.06 1.01 0.86 0.66 0.65 0.87 0.82 0.46 0.46 0.50 0.46 0.41 0.37 0.36 0.36 0.37 0.40 0.40 0.34 0.31 0.32 0.30 0.35 0.35 0.33 0.31 0.32 0.28 0.22 0.21 0.23 0.27 0.27 0.28 0.29 0.29 0.32 0.28 0.25 0.24
1.04 1.05 1.05 1.04 1.02 0.98 0.86 0.66 0.52 0.67 0.70 0.62 0.49 0.43 0.40 0.38 0.42 0.40 0.41 0.39 0.41 0.41 0.38 0.39 0.33 0.31 0.34 0.36 0.34 0.35 0.34 0.29 0.26 0.20 0.21 0.25 0.22 0.22 0.24 0.25 0.22 0.24 0.26 0.29
1.02 1.01 1.00 0.98 0.96 0.93 0.80 0.65 0.54 0.61 0.48 0.48 0.48 0.47 0.45 0.41 0.41 0.47 0.48 0.42 0.39 0.38 0.35 0.35 0.33 0.34 0.33 0.34 0.34 0.35 0.32 0.25 0.28 0.27 0.26 0.25 0.24 0.22 0.20 0.21 0.24 0.22 0.24 0.24
0.97 0.97 0.95 0.95 0.96 0.95 0.75 0.58 0.54 0.56 0.51 0.50 0.46 0.46 0.42 0.39 0.40 0.42 0.42 0.43 0.44 0.42 0.34 0.34 0.31 0.34 0.34 0.36 0.40 0.39 0.41 0.29 0.32 0.28 0.31 0.31 0.29 0.24 0.26 0.26 0.25 0.23 0.24 0.22
0.88 0.86 0.86 0.91 0.94 0.92 0.72 0.72 0.70 0.57 0.51 0.49 0.45 0.44 0.44 0.41 0.44 0.44 0.45 0.45 0.42 0.40 0.41 0.46 0.46 0.48 0.45 0.44 0.41 0.39 0.39 0.36 0.31 0.24 0.32 0.29 0.25 0.24 0.25 0.24 0.23 0.23 0.19 0.21
0.79 0.78 0.78 0.82 0.85 0.86 0.74 0.71 0.66 0.50 0.38 0.41 0.41 0.42 0.42 0.41 0.43 0.41 0.46 0.48 0.43 0.50 0.58 0.53 0.49 0.48 0.45 0.41 0.38 0.40 0.33 0.31 0.30 0.24 0.25 0.15 0.19 0.28 0.29 0.27 0.26 0.32 0.32 0.33
0.69 0.66 0.63 0.64 0.68 0.75 0.68 0.69 0.61 0.50 0.39 0.40 0.38 0.37 0.39 0.41 0.42 0.40 0.40 0.45 0.51 0.57 0.50 0.37 0.30 0.28 0.27 0.27 0.30 0.29 0.32 0.27 0.23 0.20 0.19 0.21 0.19 0.24 0.23 0.25 0.21 0.34 0.35 0.37
0.66 0.63 0.59 0.57 0.60 0.64 0.63 0.63 0.62 0.49 0.36 0.32 0.40 0.37 0.37 0.33 0.34 0.34 0.36 0.46 0.52 0.48 0.38 0.31 0.22 0.17 0.19 0.18 0.19 0.24 0.27 0.31 0.27 0.26 0.20 0.16 0.22 0.31 0.36 0.35 0.20 0.35 0.37 0.36
0.61 0.56 0.52 0.48 0.48 0.50 0.54 0.54 0.64 0.52 0.36 0.40 0.39 0.33 0.31 0.36 0.36 0.32 0.34 0.38 0.36 0.43 0.33 0.25 0.22 0.20 0.24 0.18 0.16 0.17 0.21 0.26 0.25 0.26 0.24 0.26 0.33 0.38 0.40 0.24 0.25 0.45 0.38 0.34
0.49 0.46 0.46 0.48 0.47 0.48 0.53 0.53 0.59 0.48 0.38 0.36 0.37 0.38 0.33 0.34 0.35 0.28 0.34 0.32 0.35 0.34 0.29 0.27 0.25 0.23 0.24 0.23 0.23 0.23 0.22 0.22 0.22 0.25 0.22 0.18 0.41 0.42 0.31 0.38 0.42 0.41 0.39 0.35
0.43 0.42 0.40 0.39 0.42 0.47 0.55 0.46 0.51 0.48 0.38 0.34 0.39 0.37 0.38 0.36 0.36 0.31 0.33 0.30 0.33 0.36 0.29 0.28 0.27 0.25 0.27 0.27 0.19 0.30 0.25 0.32 0.29 0.31 0.29 0.40 0.49 0.47 0.46 0.40 0.37 0.37 0.33 0.37
0.42 0.38 0.34 0.32 0.31 0.39 0.45 0.41 0.39 0.31 0.24 0.21 0.21 0.18 0.25 0.32 0.34 0.38 0.26 0.28 0.30 0.30 0.35 0.29 0.27 0.22 0.26 0.22 0.21 0.28 0.34 0.36 0.30 0.31 0.31 0.32 0.34 0.40 0.42 0.42 0.39 0.39 0.35 0.31
0.39 0.33 0.29 0.29 0.29 0.33 0.40 0.38 0.39 0.34 0.30 0.21 0.23 0.32 0.30 0.35 0.37 0.37 0.35 0.29 0.29 0.32 0.33 0.29 0.28 0.23 0.27 0.22 0.23 0.20 0.22 0.25 0.24 0.23 0.27 0.32 0.36 0.39 0.42 0.42 0.43 0.46 0.40 0.35
0.34 0.31 0.30 0.31 0.32 0.33 0.39 0.42 0.43 0.43 0.32 0.24 0.23 0.27 0.26 0.32 0.34 0.34 0.34 0.33 0.30 0.27 0.25 0.24 0.23 0.26 0.24 0.23 0.22 0.17 0.22 0.17 0.17 0.18 0.29 0.29 0.31 0.38 0.42 0.41 0.40 0.41 0.38 0.38
0.33 0.32 0.33 0.32 0.31 0.31 0.35 0.27 0.39 0.40 0.38 0.25 0.17 0.25 0.21 0.23 0.27 0.27 0.30 0.31 0.31 0.31 0.29 0.26 0.26 0.28 0.25 0.20 0.16 0.19 0.21 0.22 0.23 0.26 0.33 0.32 0.30 0.35 0.37 0.37 0.39 0.42 0.40 0.35
0.36 0.34 0.33 0.32 0.31 0.36 0.31 0.28 0.37 0.45 0.40 0.27 0.19 0.19 0.24 0.28 0.28 0.28 0.28 0.32 0.30 0.28 0.27 0.27 0.29 0.29 0.30 0.25 0.16 0.22 0.23 0.23 0.23 0.23 0.26 0.26 0.30 0.30 0.32 0.34 0.34 0.33 0.34 0.34
0.42 0.40 0.37 0.34 0.32 0.32 0.30 0.37 0.38 0.40 0.28 0.27 0.18 0.17 0.17 0.23 0.22 0.22 0.33 0.30 0.30 0.31 0.29 0.30 0.28 0.31 0.30 0.19 0.19 0.23 0.23 0.24 0.26 0.30 0.34 0.33 0.36 0.35 0.33 0.33 0.32 0.29 0.31 0.37
0.47 0.45 0.40 0.34 0.31 0.28 0.33 0.43 0.43 0.42 0.30 0.20 0.20 0.15 0.12 0.28 0.28 0.30 0.33 0.38 0.29 0.36 0.30 0.29 0.30 0.26 0.18 0.16 0.17 0.18 0.23 0.27 0.32 0.36 0.39 0.39 0.36 0.35 0.36 0.36 0.33 0.34 0.37 0.41
0.47 0.38 0.33 0.27 0.33 0.45 0.42 0.35 0.28 0.27 0.28 0.28 0.17 0.17 0.12 0.16 0.18 0.22 0.25 0.28 0.26 0.22 0.27 0.32 0.25 0.20 0.22 0.23 0.27 0.30 0.32 0.35 0.39 0.35 0.33 0.36 0.36 0.36 0.37 0.35 0.37 0.41 0.43 0.45
0.40 0.31 0.29 0.40 0.47 0.37 0.30 0.24 0.21 0.22 0.19 0.22 0.19 0.19 0.17 0.22 0.16 0.16 0.23 0.20 0.23 0.18 0.21 0.27 0.26 0.25 0.28 0.40 0.40 0.45 0.48 0.49 0.48 0.47 0.46 0.42 0.36 0.34 0.34 0.35 0.38 0.42 0.47 0.46
0.38 0.40 0.45 0.42 0.33 0.28 0.22 0.19 0.21 0.19 0.16 0.20 0.22 0.23 0.26 0.25 0.24 0.18 0.22 0.19 0.20 0.13 0.29 0.27 0.21 0.25 0.37 0.39 0.40 0.39 0.40 0.39 0.38 0.39 0.37 0.38 0.39 0.40 0.41 0.41 0.43 0.46 0.49 0.48
0.41 0.36 0.30 0.28 0.26 0.18 0.16 0.13 0.15 0.17 0.24 0.29 0.30 0.27 0.30 0.30 0.29 0.24 0.21 0.17 0.14 0.26 0.22 0.19 0.21 0.32 0.37 0.38 0.38 0.38 0.41 0.41 0.41 0.40 0.41 0.42 0.42 0.44 0.44 0.44 0.47 0.48 0.49 0.50
0.29 0.22 0.17 0.17 0.16 0.17 0.18 0.19 0.22 0.27 0.28 0.28 0.30 0.30 0.29 0.34 0.30 0.27 0.21 0.22 0.23 0.17 0.16 0.17 0.28 0.34 0.35 0.37 0.39 0.38 0.36 0.37 0.37 0.40 0.42 0.43 0.43 0.43 0.44 0.45 0.46 0.46 0.46 0.47
0.25 0.24 0.16 0.16 0.19 0.24 0.27 0.30 0.30 0.33 0.36 0.34 0.31 0.30 0.30 0.26 0.25 0.25 0.23 0.21 0.18 0.19 0.19 0.29 0.37 0.41 0.41 0.38 0.38 0.37 0.35 0.34 0.35 0.39 0.40 0.42 0.42 0.42 0.42 0.44 0.45 0.45 0.45 0.44
0.28 0.26 0.20 0.23 0.22 0.23 0.25 0.27 0.29 0.37 0.39 0.38 0.35 0.29 0.24 0.22 0.23 0.21 0.19 0.19 0.18 0.24 0.31 0.37 0.39 0.39 0.38 0.36 0.36 0.35 0.36 0.35 0.34 0.37 0.39 0.41 0.41 0.41 0.41 0.43 0.43 0.43 0.43 0.42
0.25 0.21 0.24 0.23 0.23 0.23 0.27 0.31 0.32 0.41 0.34 0.27 0.29 0.24 0.23 0.31 0.23 0.22 0.25 0.23 0.28 0.32 0.35 0.36 0.35 0.33 0.33 0.35 0.35 0.34 0.35 0.35 0.35 0.35 0.38 0.39 0.41 0.42 0.41 0.39 0.41 0.41 0.42 0.41

GFSNW_prec_pwat_195.txt.gz
Precipitable_Water
1.31 1.33 1.34 1.36 1.34 1.30 1.24 1.02 0.78 1.11 1.10 0.74 0.71 0.60 0.64 0.70 0.62 0.63 0.57 0.58 0.51 0.45 0.44 0.41 0.41 0.40 0.40 0.45 0.42 0.33 0.33 0.29 0.23 0.25 0.31 0.32 0.29 0.27 0.27 0.23 0.21 0.24 0.24 0.21
1.29 1.31 1.32 1.32 1.30 1.26 1.12 0.88 0.86 1.06 0.95 0.60 0.59 0.65 0.65 0.66 0.62 0.59 0.56 0.51 0.50 0.49 0.44 0.39 0.42 0.42 0.46 0.45 0.39 0.35 0.35 0.28 0.22 0.22 0.27 0.30 0.27 0.28 0.29 0.29 0.27 0.22 0.21 0.21
1.26 1.28 1.29 1.27 1.24 1.24 1.09 0.87 0.66 0.77 0.79 0.74 0.64 0.60 0.59 0.58 0.65 0.60 0.59 0.53 0.51 0.46 0.43 0.45 0.40 0.42 0.44 0.45 0.43 0.45 0.44 0.36 0.31 0.24 0.26 0.29 0.25 0.26 0.28 0.28 0.23 0.24 0.24 0.26
1.20 1.24 1.23 1.20 1.24 1.20 1.05 0.86 0.70 0.74 0.58 0.61 0.63 0.62 0.60 0.55 0.52 0.59 0.58 0.50 0.48 0.44 0.39 0.40 0.38 0.39 0.40 0.43 0.44 0.43 0.41 0.32 0.34 0.32 0.32 0.31 0.28 0.25 0.29 0.27 0.26 0.24 0.26 0.26
1.14 1.17 1.17 1.18 1.19 1.14 0.93 0.76 0.72 0.75 0.68 0.69 0.63 0.60 0.55 0.53 0.54 0.53 0.50 0.48 0.49 0.49 0.43 0.43 0.38 0.41 0.41 0.39 0.43 0.41 0.41 0.29 0.31 0.25 0.29 0.29 0.25 0.27 0.31 0.28 0.28 0.28 0.28 0.25
1.14 1.13 1.13 1.14 1.12 1.05 0.84 0.86 0.88 0.75 0.64 0.61 0.56 0.54 0.55 0.52 0.55 0.55 0.54 0.50 0.46 0.44 0.45 0.49 0.49 0.49 0.47 0.43 0.39 0.37 0.35 0.32 0.29 0.19 0.28 0.28 0.22 0.26 0.26 0.25 0.24 0.23 0.19 0.23
1.12 1.11 1.11 1.07 1.07 0.99 0.90 0.88 0.83 0.67 0.53 0.57 0.53 0.55 0.54 0.52 0.53 0.48 0.53 0.53 0.48 0.51 0.57 0.53 0.48 0.44 0.41 0.40 0.36 0.37 0.30 0.29 0.30 0.22 0.26 0.16 0.21 0.27 0.25 0.22 0.21 0.24 0.27 0.28
1.07 1.03 1.03 1.01 0.98 0.97 0.86 0.86 0.76 0.64 0.51 0.55 0.53 0.52 0.51 0.53 0.54 0.50 0.48 0.49 0.51 0.53 0.45 0.33 0.27 0.25 0.25 0.23 0.27 0.27 0.30 0.29 0.24 0.21 0.21 0.25 0.21 0.21 0.20 0.21 0.20 0.30 0.29 0.32
0.98 0.96 0.94 0.91 0.93 0.92 0.86 0.80 0.80 0.66 0.52 0.49 0.54 0.50 0.51 0.45 0.43 0.41 0.41 0.46 0.52 0.49 0.37 0.30 0.20 0.17 0.20 0.18 0.18 0.25 0.28 0.30 0.26 0.24 0.19 0.15 0.16 0.27 0.34 0.35 0.20 0.39 0.39 0.38
0.92 0.92 0.92 0.90 0.90 0.89 0.83 0.77 0.79 0.65 0.51 0.56 0.55 0.47 0.44 0.45 0.40 0.34 0.36 0.35 0.37 0.42 0.29 0.23 0.20 0.19 0.24 0.17 0.17 0.17 0.20 0.24 0.20 0.21 0.20 0.23 0.30 0.34 0.39 0.23 0.24 0.41 0.44 0.44
0.88 0.87 0.85 0.85 0.84 0.84 0.80 0.73 0.76 0.63 0.51 0.53 0.53 0.49 0.41 0.40 0.37 0.28 0.33 0.30 0.32 0.30 0.23 0.23 0.22 0.21 0.23 0.22 0.22 0.20 0.19 0.18 0.18 0.21 0.19 0.16 0.34 0.32 0.29 0.37 0.46 0.46 0.44 0.44
0.82 0.82 0.81 0.79 0.77 0.75 0.71 0.59 0.65 0.58 0.44 0.43 0.48 0.46 0.46 0.42 0.38 0.31 0.32 0.25 0.27 0.29 0.24 0.25 0.24 0.21 0.23 0.23 0.17 0.27 0.22 0.27 0.24 0.26 0.25 0.30 0.33 0.31 0.40 0.45 0.46 0.47 0.45 0.43
0.69 0.67 0.67 0.68 0.66 0.64 0.59 0.54 0.53 0.45 0.37 0.36 0.36 0.33 0.40 0.42 0.40 0.42 0.25 0.27 0.29 0.26 0.28 0.25 0.24 0.21 0.23 0.17 0.19 0.21 0.24 0.31 0.25 0.24 0.24 0.25 0.24 0.31 0.36 0.45 0.47 0.51 0.49 0.46
0.58 0.56 0.56 0.57 0.56 0.53 0.49 0.42 0.45 0.38 0.33 0.22 0.22 0.33 0.26 0.30 0.30 0.32 0.33 0.30 0.32 0.30 0.28 0.22 0.21 0.19 0.24 0.18 0.20 0.19 0.22 0.24 0.22 0.21 0.23 0.23 0.23 0.30 0.35 0.35 0.44 0.43 0.42 0.46
0.50 0.51 0.53 0.54 0.51 0.48 0.45 0.42 0.40 0.36 0.23 0.18 0.20 0.25 0.26 0.28 0.29 0.29 0.31 0.29 0.28 0.27 0.24 0.22 0.20 0.24 0.23 0.20 0.19 0.16 0.23 0.20 0.19 0.14 0.19 0.21 0.21 0.26 0.29 0.33 0.35 0.37 0.33 0.35
0.45 0.47 0.50 0.49 0.45 0.37 0.29 0.24 0.36 0.36 0.29 0.18 0.13 0.23 0.21 0.23 0.23 0.22 0.25 0.28 0.30 0.29 0.26 0.23 0.25 0.27 0.24 0.18 0.15 0.20 0.21 0.23 0.23 0.20 0.26 0.26 0.28 0.30 0.31 0.28 0.29 0.34 0.35 0.35
0.38 0.41 0.43 0.41 0.39 0.31 0.24 0.23 0.33 0.38 0.32 0.17 0.12 0.12 0.22 0.25 0.24 0.23 0.23 0.27 0.28 0.28 0.27 0.25 0.25 0.25 0.27 0.22 0.16 0.17 0.23 0.26 0.27 0.29 0.28 0.25 0.28 0.30 0.32 0.33 0.34 0.39 0.37 0.37
0.30 0.31 0.34 0.34 0.34 0.34 0.29 0.35 0.37 0.34 0.23 0.19 0.11 0.11 0.15 0.22 0.15 0.15 0.23 0.21 0.26 0.27 0.25 0.26 0.24 0.28 0.28 0.19 0.19 0.22 0.25 0.26 0.27 0.28 0.30 0.31 0.31 0.37 0.38 0.43 0.45 0.41 0.36 0.36
0.30 0.27 0.27 0.24 0.24 0.23 0.30 0.39 0.37 0.34 0.23 0.14 0.15 0.11 0.10 0.21 0.21 0.24 0.22 0.23 0.15 0.24 0.20 0.22 0.27 0.26 0.19 0.19 0.22 0.24 0.26 0.26 0.25 0.28 0.30 0.32 0.31 0.36 0.43 0.47 0.46 0.44 0.41 0.39
0.29 0.29 0.25 0.21 0.31 0.41 0.38 0.30 0.23 0.22 0.24 0.24 0.15 0.20 0.13 0.17 0.16 0.16 0.16 0.19 0.16 0.15 0.19 0.29 0.22 0.19 0.22 0.28 0.32 0.34 0.34 0.39 0.40 0.33 0.32 0.36 0.38 0.40 0.42 0.44 0.45 0.43 0.41 0.41
0.32 0.26 0.26 0.37 0.43 0.31 0.24 0.18 0.16 0.18 0.15 0.19 0.19 0.19 0.17 0.27 0.19 0.19 0.21 0.16 0.18 0.13 0.14 0.19 0.18 0.18 0.29 0.42 0.42 0.44 0.44 0.44 0.44 0.45 0.44 0.44 0.41 0.39 0.38 0.38 0.39 0.40 0.42 0.42
0.35 0.35 0.38 0.35 0.26 0.21 0.17 0.15 0.18 0.16 0.13 0.18 0.18 0.23 0.30 0.31 0.35 0.26 0.22 0.15 0.16 0.09 0.21 0.19 0.16 0.28 0.37 0.41 0.40 0.39 0.39 0.39 0.37 0.38 0.36 0.37 0.37 0.39 0.39 0.40 0.41 0.42 0.43 0.45
0.37 0.28 0.24 0.21 0.21 0.14 0.12 0.10 0.12 0.14 0.20 0.25 0.27 0.24 0.28 0.30 0.32 0.27 0.22 0.17 0.15 0.21 0.16 0.14 0.21 0.33 0.38 0.40 0.40 0.40 0.41 0.38 0.37 0.36 0.36 0.36 0.36 0.38 0.40 0.41 0.43 0.44 0.44 0.46
0.23 0.17 0.13 0.14 0.12 0.13 0.13 0.14 0.18 0.24 0.27 0.29 0.30 0.26 0.24 0.28 0.24 0.23 0.20 0.21 0.23 0.17 0.16 0.19 0.29 0.33 0.36 0.39 0.41 0.40 0.35 0.35 0.33 0.33 0.34 0.33 0.34 0.35 0.37 0.40 0.43 0.43 0.43 0.45
0.19 0.17 0.10 0.12 0.15 0.17 0.21 0.24 0.25 0.28 0.30 0.31 0.30 0.30 0.28 0.24 0.22 0.25 0.24 0.20 0.17 0.19 0.20 0.27 0.32 0.35 0.35 0.35 0.35 0.32 0.31 0.32 0.32 0.33 0.33 0.33 0.33 0.33 0.34 0.37 0.39 0.42 0.43 0.43
0.21 0.18 0.14 0.19 0.19 0.18 0.20 0.22 0.23 0.30 0.31 0.34 0.33 0.26 0.23 0.22 0.23 0.20 0.19 0.18 0.17 0.22 0.28 0.32 0.34 0.32 0.32 0.31 0.31 0.32 0.32 0.31 0.31 0.31 0.32 0.33 0.33 0.33 0.34 0.36 0.38 0.39 0.40 0.39
0.19 0.17 0.22 0.20 0.19 0.18 0.19 0.23 0.26 0.34 0.31 0.23 0.26 0.21 0.21 0.27 0.22 0.20 0.25 0.21 0.25 0.29 0.31 0.33 0.32 0.30 0.30 0.30 0.30 0.31 0.32 0.32 0.32 0.32 0.32 0.33 0.35 0.36 0.34 0.33 0.35 0.37 0.38 0.38

GFSNW_prec_pwat_198.txt.gz
Precipitable_Water
1.38 1.41 1.46 1.46 1.48 1.46 1.35 1.08 0.81 1.14 1.23 0.77 0.75 0.61 0.67 0.74 0.66 0.66 0.63 0.63 0.56 0.53 0.51 0.48 0.45 0.44 0.44 0.47 0.44 0.38 0.39 0.34 0.27 0.28 0.33 0.34 0.31 0.28 0.29 0.24 0.23 0.26 0.26 0.19
1.31 1.36 1.41 1.42 1.39 1.39 1.18 0.91 0.88 1.09 1.06 0.63 0.63 0.68 0.66 0.70 0.64 0.63 0.60 0.57 0.60 0.59 0.52 0.46 0.48 0.46 0.51 0.51 0.46 0.42 0.43 0.35 0.28 0.27 0.31 0.33 0.30 0.32 0.33 0.32 0.30 0.24 0.23 0.22
1.21 1.29 1.33 1.37 1.35 1.33 1.20 0.90 0.67 0.78 0.83 0.81 0.70 0.63 0.62 0.61 0.71 0.67 0.66 0.62 0.62 0.57 0.53 0.54 0.48 0.47 0.49 0.51 0.49 0.50 0.47 0.38 0.33 0.26 0.30 0.35 0.30 0.32 0.34 0.32 0.26 0.26 0.23 0.25
1.08 1.19 1.28 1.30 1.31 1.30 1.16 0.88 0.70 0.75 0.58 0.63 0.66 0.67 0.65 0.60 0.58 0.67 0.68 0.60 0.59 0.56 0.49 0.50 0.47 0.49 0.47 0.49 0.49 0.47 0.43 0.33 0.35 0.34 0.36 0.36 0.31 0.30 0.31 0.28 0.27 0.23 0.23 0.24
1.02 1.11 1.20 1.23 1.26 1.29 1.04 0.78 0.71 0.76 0.70 0.70 0.66 0.64 0.60 0.60 0.61 0.61 0.57 0.56 0.58 0.57 0.49 0.48 0.44 0.47 0.47 0.44 0.48 0.44 0.45 0.34 0.35 0.28 0.32 0.29 0.24 0.26 0.28 0.26 0.25 0.27 0.28 0.25
0.97 1.05 1.14 1.19 1.21 1.21 0.93 0.91 0.92 0.78 0.68 0.64 0.60 0.58 0.61 0.60 0.64 0.62 0.64 0.60 0.55 0.51 0.54 0.58 0.57 0.56 0.54 0.50 0.45 0.41 0.38 0.34 0.30 0.19 0.27 0.25 0.17 0.19 0.21 0.22 0.25 0.25 0.21 0.19
0.93 1.01 1.10 1.16 1.16 1.15 1.02 0.94 0.85 0.71 0.57 0.61 0.59 0.62 0.61 0.58 0.59 0.54 0.59 0.61 0.54 0.59 0.67 0.62 0.57 0.52 0.48 0.45 0.41 0.41 0.32 0.30 0.29 0.20 0.24 0.14 0.18 0.25 0.26 0.25 0.25 0.23 0.24 0.23
0.88 1.00 1.09 1.13 1.13 1.13 0.99 0.94 0.81 0.70 0.58 0.59 0.59 0.59 0.58 0.58 0.58 0.55 0.54 0.57 0.61 0.64 0.55 0.42 0.35 0.33 0.32 0.30 0.32 0.31 0.33 0.29 0.23 0.19 0.17 0.19 0.19 0.22 0.25 0.25 0.22 0.26 0.24 0.27
0.82 0.98 1.07 1.05 1.02 1.02 0.95 0.90 0.90 0.75 0.59 0.53 0.60 0.55 0.57 0.49 0.48 0.49 0.51 0.60 0.63 0.57 0.45 0.36 0.26 0.21 0.22 0.20 0.21 0.27 0.29 0.30 0.24 0.20 0.16 0.13 0.19 0.30 0.37 0.37 0.19 0.31 0.34 0.37
0.81 0.86 0.93 0.95 0.97 0.95 0.90 0.85 0.88 0.74 0.58 0.62 0.61 0.52 0.51 0.56 0.50 0.45 0.47 0.50 0.49 0.51 0.36 0.28 0.24 0.21 0.25 0.17 0.16 0.17 0.19 0.21 0.18 0.19 0.17 0.20 0.30 0.32 0.36 0.20 0.20 0.34 0.40 0.43
0.79 0.80 0.87 0.91 0.93 0.94 0.87 0.79 0.84 0.71 0.59 0.60 0.63 0.62 0.54 0.53 0.50 0.40 0.44 0.40 0.41 0.37 0.28 0.26 0.24 0.21 0.22 0.20 0.20 0.18 0.16 0.16 0.16 0.19 0.17 0.15 0.32 0.29 0.22 0.27 0.34 0.37 0.44 0.47
0.82 0.83 0.86 0.89 0.90 0.89 0.86 0.72 0.79 0.74 0.60 0.58 0.65 0.62 0.62 0.55 0.50 0.43 0.42 0.34 0.33 0.33 0.26 0.27 0.25 0.21 0.22 0.19 0.13 0.22 0.16 0.22 0.21 0.24 0.22 0.33 0.34 0.30 0.28 0.28 0.29 0.39 0.46 0.50
0.82 0.80 0.81 0.82 0.83 0.82 0.79 0.69 0.67 0.61 0.52 0.50 0.49 0.47 0.52 0.54 0.49 0.47 0.31 0.33 0.34 0.31 0.32 0.25 0.23 0.18 0.21 0.15 0.15 0.18 0.21 0.28 0.24 0.24 0.25 0.28 0.28 0.30 0.28 0.30 0.32 0.38 0.44 0.45
0.80 0.79 0.78 0.77 0.75 0.71 0.68 0.57 0.57 0.50 0.41 0.35 0.37 0.47 0.42 0.46 0.43 0.40 0.37 0.32 0.34 0.32 0.29 0.22 0.19 0.16 0.21 0.15 0.16 0.15 0.17 0.20 0.18 0.19 0.20 0.22 0.21 0.24 0.26 0.23 0.28 0.31 0.39 0.39
0.74 0.73 0.70 0.67 0.64 0.62 0.58 0.53 0.50 0.45 0.30 0.23 0.26 0.32 0.31 0.31 0.29 0.27 0.28 0.27 0.25 0.23 0.21 0.19 0.18 0.23 0.22 0.21 0.19 0.14 0.20 0.15 0.15 0.13 0.17 0.19 0.18 0.21 0.25 0.25 0.25 0.29 0.31 0.30
0.62 0.59 0.57 0.54 0.52 0.47 0.38 0.29 0.37 0.37 0.30 0.20 0.17 0.26 0.25 0.26 0.26 0.26 0.26 0.27 0.27 0.26 0.23 0.22 0.25 0.27 0.22 0.16 0.12 0.17 0.20 0.23 0.23 0.20 0.23 0.25 0.26 0.27 0.28 0.27 0.29 0.32 0.31 0.34
0.53 0.51 0.46 0.42 0.37 0.33 0.28 0.27 0.33 0.35 0.28 0.16 0.14 0.17 0.24 0.26 0.25 0.23 0.23 0.26 0.26 0.25 0.24 0.23 0.23 0.23 0.26 0.20 0.14 0.16 0.22 0.25 0.26 0.28 0.27 0.25 0.27 0.26 0.28 0.31 0.35 0.37 0.36 0.40
0.47 0.42 0.38 0.38 0.37 0.35 0.29 0.35 0.33 0.27 0.19 0.17 0.11 0.14 0.17 0.24 0.16 0.15 0.23 0.19 0.22 0.22 0.21 0.23 0.20 0.23 0.24 0.16 0.19 0.22 0.24 0.25 0.26 0.28 0.29 0.28 0.29 0.30 0.30 0.32 0.36 0.39 0.42 0.43
0.35 0.33 0.32 0.29 0.27 0.24 0.29 0.37 0.32 0.29 0.18 0.12 0.12 0.09 0.09 0.20 0.18 0.22 0.22 0.24 0.15 0.22 0.16 0.15 0.18 0.18 0.15 0.16 0.19 0.21 0.26 0.27 0.28 0.32 0.32 0.31 0.29 0.30 0.33 0.37 0.43 0.44 0.45 0.45
0.29 0.27 0.23 0.22 0.31 0.40 0.35 0.26 0.19 0.19 0.21 0.20 0.14 0.19 0.12 0.15 0.14 0.15 0.16 0.19 0.15 0.12 0.15 0.22 0.17 0.15 0.18 0.22 0.29 0.35 0.40 0.41 0.42 0.37 0.36 0.37 0.37 0.39 0.41 0.41 0.43 0.43 0.43 0.43
0.26 0.24 0.24 0.35 0.40 0.28 0.22 0.16 0.14 0.15 0.13 0.17 0.18 0.17 0.15 0.24 0.18 0.19 0.23 0.19 0.19 0.12 0.13 0.16 0.15 0.13 0.20 0.33 0.41 0.43 0.42 0.41 0.39 0.39 0.39 0.39 0.39 0.37 0.37 0.38 0.39 0.40 0.40 0.40
0.30 0.30 0.35 0.30 0.22 0.17 0.13 0.13 0.16 0.13 0.11 0.17 0.16 0.19 0.24 0.26 0.31 0.23 0.23 0.18 0.17 0.09 0.20 0.17 0.13 0.17 0.29 0.35 0.40 0.41 0.40 0.39 0.36 0.37 0.35 0.35 0.34 0.34 0.34 0.35 0.37 0.40 0.42 0.43
0.30 0.25 0.20 0.18 0.17 0.10 0.09 0.08 0.10 0.11 0.17 0.22 0.25 0.23 0.27 0.28 0.29 0.24 0.23 0.18 0.16 0.22 0.16 0.13 0.17 0.26 0.31 0.36 0.39 0.40 0.42 0.40 0.35 0.34 0.34 0.34 0.33 0.34 0.34 0.34 0.37 0.39 0.41 0.43
0.20 0.16 0.11 0.11 0.10 0.11 0.12 0.11 0.14 0.21 0.25 0.26 0.27 0.27 0.25 0.26 0.23 0.22 0.18 0.21 0.22 0.16 0.14 0.16 0.25 0.31 0.35 0.36 0.37 0.35 0.33 0.33 0.31 0.30 0.31 0.31 0.31 0.32 0.33 0.35 0.36 0.36 0.37 0.41
0.17 0.14 0.09 0.10 0.14 0.15 0.17 0.20 0.22 0.26 0.29 0.28 0.28 0.28 0.28 0.24 0.21 0.23 0.22 0.19 0.16 0.18 0.19 0.25 0.30 0.33 0.34 0.33 0.33 0.31 0.31 0.31 0.31 0.31 0.30 0.30 0.30 0.30 0.31 0.34 0.35 0.37 0.37 0.37
0.19 0.17 0.12 0.15 0.14 0.15 0.17 0.20 0.21 0.27 0.28 0.31 0.30 0.24 0.21 0.21 0.22 0.20 0.18 0.18 0.16 0.21 0.26 0.30 0.32 0.31 0.31 0.31 0.31 0.31 0.31 0.31 0.30 0.31 0.31 0.30 0.30 0.30 0.31 0.33 0.34 0.35 0.36 0.36
0.15 0.14 0.19 0.18 0.18 0.16 0.18 0.20 0.21 0.29 0.28 0.22 0.23 0.19 0.19 0.25 0.19 0.18 0.23 0.20 0.24 0.27 0.28 0.30 0.29 0.28 0.28 0.29 0.29 0.29 0.29 0.28 0.28 0.28 0.29 0.29 0.32 0.32 0.31 0.30 0.33 0.35 0.36 0.36